Regional Weather Roundup
Issued by NWS

Home | Current Version | Previous Version | Graphics & Text | Print | Product List | Glossary On
Versions: 1 2 3 4 5 6 7 8 9 10 11 12 13 14 15 16 17 18 19 20 21 22 23 24 25 26 27 28 29 30 31 32 33 34 35 36 37 38 39 40 41 42 43 44 45 46 47 48 49 50
000
ASUS43 KMPX 300210
RWRMN
WEATHER ROUNDUP FOR MINNESOTA
NATIONAL WEATHER SERVICE TWIN CITIES/CHANHASSEN MN
900 PM CDT SUN MAY 29 2016


NOTE: "FAIR" INDICATES FEW OR NO CLOUDS BELOW 12,000 FEET WITH NO
SIGNIFICANT WEATHER AND/OR OBSTRUCTIONS TO VISIBILITY. N/A MEANS
CURRENT SKY AND/OR WEATHER CONDITIONS ARE NOT AVAILABLE.

MNZ060>063-068>070-300300-
   Twin Cities Metro

CITY           SKY/WX    TMP DP  RH WIND       PRES   REMARKS
TWIN CITIES    PTCLDY    71  57  61 NW3       29.94S
ST PAUL        CLEAR     67  56  67 CALM      29.94S
CRYSTAL        CLEAR     68  56  65 CALM      29.93S
BLAINE         PTCLDY    70  61  73 CALM      29.94R
EDEN PRAIRIE   CLEAR     72  56  57 CALM      29.94R
SOUTH ST PAUL  CLEAR     69  55  61 CALM      29.94S
LAKE ELMO      FAIR      64  61  88 CALM      29.95S
$$
MNZ001>005-007-008-013>017-022>024-027-028-300300-
   Northwest Minnesota

CITY           SKY/WX    TMP DP  RH WIND       PRES   REMARKS
BEMIDJI        CLEAR     64  50  61 W5        29.93S
HALLOCK        CLEAR     68  52  56 CALM      29.89S
ROSEAU         CLEAR     64  55  72 W5        29.90R
WARROAD        CLEAR     63  54  72 W5        29.90R
THIEF RVR FALL CLEAR     66  48  52 W3        29.93S
CROOKSTON      CLEAR     70  52  52 CALM      29.91S
FOSSTON        CLEAR     64  52  63 CALM      29.94S
DETROIT LAKES  CLEAR     66  48  52 CALM      29.95S
MOORHEAD       CLEAR     70  54  56 N3        29.93S
PARK RAPIDS    CLEAR     63  53  70 W5        29.94S
MAHNOMEN       FAIR      65  51  61 W5        29.93S
$$
MNZ006-009>011-018-025>026-300300-
   North Central Minnesota

CITY           SKY/WX    TMP DP  RH WIND       PRES   REMARKS
BAUDETTE       PTCLDY    63  52  67 W6        29.89R
FLAG ISLAND    CLEAR     64  54  68 NW8       29.87R
INTL FALLS     CLEAR     60  52  74 NW5       29.88R
WASKISH        CLEAR     64  55  72 W8        29.90S
BIG FORK       CLEAR     63  52  67 W3        29.91R
LONGVILLE      CLEAR     59  54  82 CALM      29.94R
GRAND RAPIDS   CLEAR     64  54  69 SW6       29.93S
CRANE LAKE     PTCLDY    55  55 100 CALM      29.89S
ORR            MOCLDY    59  55  88 CALM      29.87R
COOK           CLOUDY    61  55  82 W5        29.89S
WALKER         FAIR      63  50  63 CALM      29.93S
$$
MNZ012-019>021-037-300300-
   Northeast Minnesota

CITY           SKY/WX    TMP DP  RH WIND       PRES   REMARKS
DULUTH         PTCLDY    60  52  74 W6        29.91R
ELY            MOCLDY    59  54  82 CALM      29.89S
HIBBING        CLEAR     61  52  72 W5        29.90S
EVELETH        CLEAR     59  52  77 SW6       29.91S
DULUTH HARBOR  CLEAR     66  55  68 SW6       29.90S
TWO HARBORS      N/A     63  55  77 SW3       29.88R
SILVER BAY     CLEAR     61  55  82 CALM      29.87S
GRAND MARAIS     N/A     54  49  83 SW6       29.84R
G MARAIS ARPRT CLEAR     55  48  76 W7        29.86R
$$
MNZ029>031-032-039>041-046>048-054>057-064-300300-
   West Central Minnesota

CITY           SKY/WX    TMP DP  RH WIND       PRES   REMARKS
FERGUS FALLS   CLEAR     70  43  37 N3        29.90S
WHEATON        CLEAR     73  48  40 CALM      29.96S
MORRIS         CLEAR     70  46  43 N6        29.94S
ALEXANDRIA     CLEAR     68  49  50 CALM      29.96S
ELBOW LAKE     FAIR      68  51  54 W5        29.95S
WADENA         CLEAR     64  52  63 CALM      29.95S
GLENWOOD       CLEAR     66  50  55 CALM      29.96S
APPLETON       CLEAR     68  43  40 W6        29.95R
ORTONVILLE     CLEAR     72  45  37 NW3       29.95S
MADISON        CLEAR     72  43  35 NW3       29.96R
WILLMAR        FAIR      70  52  52 N3        29.97R
$$
MNZ033>034-036-042>043-049>051-058-059-300300-
   Central Minnesota

CITY           SKY/WX    TMP DP  RH WIND       PRES   REMARKS
ST CLOUD       CLEAR     68  55  63 W3        29.94R
SAUK CENTRE    FAIR      66  49  54 NW3       29.95S
PAYNESVILLE    CLEAR     69  47  46 CALM      29.96S
AITKIN         CLEAR     64  48  55 CALM      29.93R
PINE RIVER     CLEAR     64  54  68 CALM      29.97S
BRAINERD       PTCLDY    67  51  56 W5        29.95R
STAPLES        CLEAR     66  52  59 CALM      29.95S
LONG PRAIRIE   FAIR      64  50  59 CALM      29.95S
LITTLE FALLS   CLEAR     66  50  55 CALM      29.95R
LITCHFIELD     CLEAR     72  52  49 CALM      29.96S
BUFFALO        CLEAR     70  53  56 CALM      29.96S
MAPLE LAKE     CLEAR     69  57  66 CALM      29.95S
HUTCHINSON     CLEAR     70  60  70 CALM      29.97S
$$
MNZ037-044-045-052-053-300300-
   East Central Minnesota

CITY           SKY/WX    TMP DP  RH WIND       PRES   REMARKS
PRINCETON      CLEAR     70  55  60 CALM      29.94S
MORA           PTCLDY    64  54  68 NW8       29.96R
CAMBRIDGE      CLEAR     70  55  60 CALM      29.92S
RUSH CITY      CLEAR     64  56  77 CALM      29.93S
MOOSE LAKE     PTCLDY    61  54  77 CALM      29.91S
HINCKLEY       FAIR      68  55  64 CALM      29.93S
CLOQUET        CLEAR     63  52  67 W3        29.92S
MCGREGOR       CLEAR     64  54  68 CALM      29.94R
$$
MNZ071>073-080-081-089-090-097-098-300300-
   Southwest Minnesota

CITY           SKY/WX    TMP DP  RH WIND       PRES   REMARKS
MONTEVIDEO     CLEAR     72  43  35 NW3       29.97S
GRANITE FALLS  CLEAR     73  46  37 NW5       29.97S
CANBY          CLEAR     71  53  51 CALM      29.98S
MARSHALL       CLEAR     72  49  44 NW3       29.98R
REDWOOD FALLS  CLEAR     72  43  35 NW5       29.96R
OLIVIA         CLEAR     68  48  49 CALM      29.96R
PIPESTONE      CLEAR     70  52  52 W3        30.01R
WINDOM         CLEAR     68  50  52 CALM      30.00R
WORTHINGTON    CLEAR     68  51  54 W7        30.02R
JACKSON        CLEAR     70  46  43 CALM      30.01R
TRACY          CLEAR     69  55  59 W3        29.99R
SLAYTON        CLEAR     70  51  49 CALM      30.02R
$$
MNZ065>067-074>077-082>085-091>093-300300-
   South Central Minnesota

CITY           SKY/WX    TMP DP  RH WIND       PRES   REMARKS
MANKATO        CLEAR     72  57  60 N5        29.96R
NEW ULM        CLEAR     70  50  49 NW6       29.96S
ST JAMES       CLEAR     64  50  59 W5        29.98S
FAIRMONT       CLEAR     72  46  40 W7        29.99R
GLENCOE        CLEAR     70  63  77 CALM      29.95S
FARIBAULT      CLEAR     63  61  94 CALM      29.97R
OWATONNA       CLEAR     68  57  68 N3        29.97R
WASECA         CLEAR     68  55  64 CALM      29.97S
ALBERT LEA     CLEAR     70  54  56 W3        29.98R
$$
MNZ078>079-086>088-094>096-300300-
   Southeast Minnesota

CITY           SKY/WX    TMP DP  RH WIND       PRES   REMARKS
ROCHESTER      CLEAR     69  59  70 N5        29.97R
RED WING       CLOUDY    68  61  77 CALM      29.92S
STANTON        PTCLDY    68  60  75 SW3       29.94S
DODGE CENTER   CLEAR     70  57  64 N3        29.98R
WINONA         CLEAR     68  61  77 CALM      29.95R
AUSTIN         CLEAR     70  54  56 CALM      29.97R
PRESTON        CLEAR     70  57  64 CALM      29.98S
$$
ABBREVIATIONS USED IN REMARKS
   TC - TEMPERATURES IN CELSIUS
  WCI - WIND CHILL INDEX
   HX - HEAT INDEX
  VSB - VISIBILITY
$$



USA.gov is the U.S. government's official web portal to all federal, state and local government web resources and services.